Location: NJAA Observatory
(40.6819°N, 74.8979°W)
Time: 07:18:57
(UTC-04:00)

Iridium 56 - Visible Passes

Search period start: 25 July 2014 00:00
Search period end: 04 August 2014 00:00
Orbit: 776 x 779 km, 86.4° (Epoch: 24 July)

Date Brightness Start Highest point End Pass type
(mag) Time Alt. Az. Time Alt. Az. Time Alt. Az.
25 Jul 7.2 22:05:03 10° NNW 22:09:36 32° W 22:14:09 10° SW visible
26 Jul 6.1 21:31:08 10° N 21:36:15 58° W 21:41:20 10° SSW visible
27 Jul 5.5 20:57:32 10° N 21:02:46 76° E 21:07:58 10° S visible
27 Jul 8.3 22:40:53 10° NW 22:42:44 12° WNW 22:44:34 10° W visible
28 Jul 7.8 22:05:38 10° NNW 22:09:34 22° W 22:13:29 10° SW visible
29 Jul 6.9 21:31:26 10° NNW 21:36:16 40° W 21:41:05 10° SSW visible
30 Jul 5.8 20:57:39 10° N 21:02:52 75° W 21:08:03 10° S visible
31 Jul 8.2 22:06:31 10° NW 22:09:28 15° WNW 22:12:25 10° WSW visible
01 Aug 7.6 21:31:53 10° NNW 21:36:15 28° W 21:40:37 10° SW visible
02 Aug 6.5 20:57:52 10° NNW 21:02:55 51° W 21:07:56 10° SSW visible
03 Aug 8.7 22:08:42 10° WNW 22:09:20 10° WNW 22:09:57 10° W visible
